{"data":{"norad_id":66560,"intl_designator":"2025-268D","name":"STARLINK-35411","alt_names":[],"object_type":"PAYLOAD","status":"ACTIVE","operator":null,"country":"US","launch_date":"2025-11-21","launch_site_code":"AFETR","launch_vehicle":null,"mission":null,"orbit_class":"UNKNOWN","rcs_meters":null,"size_class":null,"mass_kg":null,"dimensions":null,"purposes":["comms"],"wikipedia_slug":null,"has_3d_model":false,"image_url":null,"decayed_at":null,"tle_current":{"epoch":"2026-05-25T02:09:58.243680Z","epoch_age_seconds":61204,"freshness":"FRESH","line1":"1 66560U 25268D   26145.09025745  .00020354  00000+0  74675-3 0  9991","line2":"2 66560  43.0026 275.6443 0003770 267.5154  92.5266 15.27593177 29646","mean_motion":15.27593177,"eccentricity":0.000377,"inclination_deg":43.0026,"raan_deg":275.6443,"arg_perigee_deg":267.5154,"mean_anomaly_deg":92.5266,"bstar":0.00074675,"rev_number":2964,"period_min":94.265935569834,"perigee_km":480.42298736173,"apogee_km":485.59629192803,"semimajor_km":6861.1466396449,"source":"CELESTRAK","updated_at":"2026-05-25T13:38:21.256544Z"}}}